| time (UTC) | temp F | wind direction | speed MPH | gust MPH | rain 1hr in | rain 24hr in | rain mn in | humidity % | barometer mb |
| 20260506014257 | 49 | 340 | 0.0 | 0.0 | 0.00 | 0.00 | 0.00 | ||
| 20260506013231 | 49 | 333 | 0.0 | 2.0 | 0.00 | 0.00 | 0.00 | ||
| 20260506012718 | 50 | 321 | 0.0 | 1.0 | 0.00 | 0.00 | 0.00 | ||
| 20260506012205 | 50 | 318 | 0.0 | 5.0 | 0.00 | 0.00 | 0.00 | ||
| 20260506011653 | 51 | 324 | 0.0 | 5.0 | 0.00 | 0.00 | 0.00 | ||
| 20260506011140 | 51 | 330 | 0.0 | 2.0 | 0.00 | 0.00 | 0.00 | ||
| 20260506010627 | 51 | 325 | 0.0 | 9.0 | 0.00 | 0.00 | 0.00 | ||
| 20260506010114 | 52 | 318 | 0.0 | 8.0 | 0.00 | 0.00 | 0.00 | ||
| 20260506005601 | 52 | 315 | 0.0 | 4.0 | 0.00 | 0.00 | 0.00 | ||
| 20260506005048 | 52 | 328 | 0.0 | 4.0 | 0.00 | 0.00 | 0.00 | ||
| 20260506004535 | 53 | 319 | 3.0 | 7.0 | 0.00 | 0.00 | 0.00 | ||
| 20260506004023 | 53 | 320 | 0.0 | 6.0 | 0.00 | 0.00 | 0.00 | ||
| 20260506003510 | 54 | 318 | 0.0 | 7.0 | 0.00 | 0.00 | 0.00 | ||
| 20260506002957 | 55 | 324 | 0.0 | 0.0 | 0.00 | 0.00 | 0.00 | ||
| 20260506002444 | 56 | 318 | 0.0 | 0.0 | 0.00 | 0.00 | 0.00 | ||
| 20260506001931 | 57 | 317 | 0.0 | 3.0 | 0.00 | 0.00 | 0.00 | ||
| 20260506001419 | 58 | 326 | 0.0 | 5.0 | 0.00 | 0.00 | 0.00 | ||
| 20260506000906 | 60 | 326 | 0.0 | 5.0 | 0.00 | 0.00 | 0.00 | ||
| 20260506000354 | 62 | 322 | 0.0 | 0.0 | 0.00 | 0.00 | 0.00 | ||
| 20260505235840 | 63 | 337 | 0.0 | 0.0 | 0.00 | 0.00 | 0.00 | ||
| 20260505235327 | 62 | 338 | 0.0 | 2.0 | 0.00 | 0.00 | 0.00 | ||
| 20260505234814 | 61 | 318 | 0.0 | 7.0 | 0.00 | 0.00 | 0.00 | ||
| 20260505233749 | 64 | 315 | 0.0 | 13.0 | 0.00 | 0.00 | 0.00 | ||
| 20260505232210 | 67 | 325 | 1.0 | 3.0 | 0.00 | 0.00 | 0.00 | ||
| 20260505231657 | 67 | 315 | 0.0 | 3.0 | 0.00 | 0.00 | 0.00 | ||
| 20260505231144 | 69 | 315 | 3.0 | 13.0 | 0.00 | 0.00 | 0.00 | ||
| 20260505230632 | 69 | 315 | 0.0 | 8.0 | 0.00 | 0.00 | 0.00 | ||
| 20260505225606 | 69 | 335 | 0.0 | 5.0 | 0.00 | 0.00 | 0.00 | ||
| 20260505225053 | 69 | 330 | 0.0 | 7.0 | 0.00 | 0.00 | 0.00 | ||
| 20260505224540 | 69 | 316 | 0.0 | 7.0 | 0.00 | 0.00 | 0.00 | ||
| 20260505224027 | 69 | 316 | 0.0 | 8.0 | 0.00 | 0.00 | 0.00 | ||
| 20260505223514 | 69 | 316 | 0.0 | 9.0 | 0.00 | 0.00 | 0.00 | ||
| 20260505223002 | 69 | 320 | 0.0 | 9.0 | 0.00 | 0.00 | 0.00 | ||
| 20260505222449 | 68 | 319 | 0.0 | 7.0 | 0.00 | 0.00 | 0.00 | ||
| 20260505221936 | 68 | 320 | 1.0 | 9.0 | 0.00 | 0.00 | 0.00 | ||
| 20260505221423 | 67 | 327 | 2.0 | 6.0 | 0.00 | 0.00 | 0.00 | ||
| 20260505220910 | 67 | 323 | 1.0 | 4.0 | 0.00 | 0.00 | 0.00 | ||
| 20260505220358 | 66 | 321 | 2.0 | 4.0 | 0.00 | 0.00 | 0.00 | ||
| 20260505215845 | 65 | 325 | 0.0 | 3.0 | 0.00 | 0.00 | 0.00 | ||
| 20260505215332 | 66 | 317 | 0.0 | 4.0 | 0.00 | 0.00 | 0.00 | ||
| 20260505214819 | 67 | 316 | 0.0 | 5.0 | 0.00 | 0.00 | 0.00 | ||
| 20260505214306 | 66 | 344 | 0.0 | 0.0 | 0.00 | 0.00 | 0.00 | ||
| 20260505213753 | 66 | 322 | 0.0 | 4.0 | 0.00 | 0.00 | 0.00 | ||
| 20260505213240 | 67 | 318 | 0.0 | 7.0 | 0.00 | 0.00 | 0.00 | ||
| 20260505212728 | 66 | 322 | 1.0 | 5.0 | 0.00 | 0.00 | 0.00 | ||
| 20260505212215 | 65 | 330 | 0.0 | 12.0 | 0.00 | 0.00 | 0.00 | ||
| 20260505211702 | 65 | 317 | 0.0 | 5.0 | 0.00 | 0.00 | 0.00 | ||
| 20260505205611 | 63 | 340 | 0.0 | 4.0 | 0.00 | 0.00 | 0.00 | ||
| 20260505205058 | 63 | 315 | 0.0 | 4.0 | 0.00 | 0.00 | 0.00 | ||
| 20260505204545 | 63 | 318 | 0.0 | 8.0 | 0.00 | 0.00 | 0.00 | ||
| 20260505203519 | 64 | 319 | 0.0 | 3.0 | 0.00 | 0.00 | 0.00 | ||
| 20260505203006 | 64 | 322 | 0.0 | 5.0 | 0.00 | 0.00 | 0.00 | ||
| 20260505202453 | 65 | 337 | 0.0 | 0.0 | 0.00 | 0.00 | 0.00 | ||
| 20260505201941 | 66 | 315 | 5.0 | 10.0 | 0.00 | 0.00 | 0.00 | ||
| 20260505201428 | 67 | 323 | 0.0 | 9.0 | 0.00 | 0.00 | 0.00 | ||
| 20260505200915 | 66 | 319 | 1.0 | 6.0 | 0.00 | 0.00 | 0.00 | ||
| 20260505200402 | 65 | 332 | 0.0 | 9.0 | 0.00 | 0.00 | 0.00 | ||
| 20260505195849 | 65 | 322 | 2.0 | 5.0 | 0.00 | 0.00 | 0.00 | ||
| 20260505195336 | 64 | 320 | 0.0 | 12.0 | 0.00 | 0.00 | 0.00 | ||
| 20260505194823 | 65 | 339 | 0.0 | 0.0 | 0.00 | 0.00 | 0.00 | ||
| 20260505194310 | 65 | 330 | 6.0 | 18.0 | 0.00 | 0.00 | 0.00 | ||
| 20260505193758 | 65 | 325 | 0.0 | 4.0 | 0.00 | 0.00 | 0.00 | ||
| 20260505193245 | 66 | 317 | 0.0 | 3.0 | 0.00 | 0.00 | 0.00 | ||
| 20260505192219 | 67 | 332 | 0.0 | 10.0 | 0.00 | 0.00 | 0.00 | ||
| 20260505191706 | 67 | 322 | 0.0 | 0.0 | 0.00 | 0.00 | 0.00 | ||
| 20260505191154 | 66 | 329 | 0.0 | 1.0 | 0.00 | 0.00 | 0.00 | ||
| 20260505190641 | 66 | 315 | 0.0 | 7.0 | 0.00 | 0.00 | 0.00 | ||
| 20260505185615 | 65 | 324 | 0.0 | 11.0 | 0.00 | 0.00 | 0.00 | ||
| 20260505185102 | 66 | 327 | 0.0 | 9.0 | 0.00 | 0.00 | 0.00 | ||
| 20260505184549 | 65 | 333 | 0.0 | 5.0 | 0.00 | 0.00 | 0.00 | ||
| 20260505184036 | 65 | 334 | 0.0 | 7.0 | 0.00 | 0.00 | 0.00 | ||
| 20260505183524 | 65 | 310 | 0.0 | 11.0 | 0.00 | 0.00 | 0.00 | ||
| 20260505183011 | 65 | 316 | 0.0 | 4.0 | 0.00 | 0.00 | 0.00 | ||
| 20260505182458 | 64 | 323 | 0.0 | 0.0 | 0.00 | 0.00 | 0.00 | ||
| 20260505181945 | 64 | 317 | 0.0 | 5.0 | 0.00 | 0.00 | 0.00 | ||
| 20260505181432 | 64 | 325 | 0.0 | 1.0 | 0.00 | 0.00 | 0.00 | ||
| 20260505180919 | 63 | 315 | 0.0 | 9.0 | 0.00 | 0.00 | 0.00 | ||
| 20260505180407 | 64 | 333 | 3.0 | 6.0 | 0.00 | 0.00 | 0.00 | ||
| 20260505175854 | 63 | 318 | 3.0 | 6.0 | 0.00 | 0.00 | 0.00 | ||
| 20260505175341 | 64 | 320 | 0.0 | 5.0 | 0.00 | 0.00 | 0.00 | ||
| 20260505174828 | 64 | 308 | 0.0 | 1.0 | 0.00 | 0.00 | 0.00 | ||
| 20260505174315 | 63 | 320 | 0.0 | 7.0 | 0.00 | 0.00 | 0.00 | ||
| 20260505173802 | 64 | 320 | 0.0 | 3.0 | 0.00 | 0.00 | 0.00 | ||
| 20260505173249 | 64 | 296 | 0.0 | 3.0 | 0.00 | 0.00 | 0.00 | ||
| 20260505172737 | 65 | 315 | 0.0 | 0.0 | 0.00 | 0.00 | 0.00 | ||
| 20260505172225 | 65 | 318 | 0.0 | 2.0 | 0.00 | 0.00 | 0.00 | ||
| 20260505171711 | 65 | 337 | 3.0 | 5.0 | 0.00 | 0.00 | 0.00 | ||
| 20260505171158 | 65 | 306 | 0.0 | 0.0 | 0.00 | 0.00 | 0.00 | ||
| 20260505170645 | 64 | 320 | 0.0 | 0.0 | 0.00 | 0.00 | 0.00 | ||
| 20260505170133 | 64 | 316 | 0.0 | 0.0 | 0.00 | 0.00 | 0.00 | ||
| 20260505165620 | 64 | 333 | 0.0 | 0.0 | 0.00 | 0.00 | 0.00 | ||
| 20260505165107 | 64 | 325 | 0.0 | 0.0 | 0.00 | 0.00 | 0.00 | ||
| 20260505164554 | 64 | 321 | 0.0 | 3.0 | 0.00 | 0.00 | 0.00 | ||
| 20260505163528 | 63 | 323 | 0.0 | 7.0 | 0.00 | 0.00 | 0.00 | ||
| 20260505163015 | 64 | 316 | 1.0 | 2.0 | 0.00 | 0.00 | 0.00 | ||
| 20260505162502 | 64 | 328 | 0.0 | 5.0 | 0.00 | 0.00 | 0.00 | ||
| 20260505161950 | 65 | 327 | 0.0 | 1.0 | 0.00 | 0.00 | 0.00 | ||
| 20260505161437 | 66 | 299 | 0.0 | 1.0 | 0.00 | 0.00 | 0.00 | ||
| 20260505160924 | 67 | 309 | 0.0 | 0.0 | 0.00 | 0.00 | 0.00 | ||
| 20260505160411 | 67 | 331 | 0.0 | 0.0 | 0.00 | 0.00 | 0.00 | ||
| 20260505152741 | 61 | 318 | 0.0 | 0.0 | 0.00 | 0.00 | 0.00 | ||
| 20260505152228 | 60 | 310 | 0.0 | 0.0 | 0.00 | 0.00 | 0.00 | ||
| 20260505151715 | 59 | 279 | 0.0 | 0.0 | 0.00 | 0.00 | 0.00 | ||
| 20260505151203 | 59 | 300 | 0.0 | 0.0 | 0.00 | 0.00 | 0.00 | ||
| 20260505150652 | 58 | 0 | 0.0 | 0.0 | 0.00 | 0.00 | 0.00 | ||
| 20260505150137 | 58 | 337 | 0.0 | 0.0 | 0.00 | 0.00 | 0.00 | ||
| 20260505140416 | 39 | 337 | 0.0 | 0.0 | 0.00 | 0.00 | 0.00 | ||
| 20260505130142 | 38 | 348 | 0.0 | 0.0 | 0.00 | 0.00 | 0.00 | ||
| 20260505124603 | 38 | 135 | 0.0 | 0.0 | 0.00 | 0.00 | 0.00 | ||
| 20260505123539 | 37 | 337 | 0.0 | 0.0 | 0.00 | 0.00 | 0.00 | ||
| 20260505123025 | 37 | 337 | 0.0 | 0.0 | 0.00 | 0.00 | 0.00 | ||
| 20260505122513 | 37 | 337 | 0.0 | 0.0 | 0.00 | 0.00 | 0.00 | ||
| 20260505122001 | 37 | 114 | 0.0 | 0.0 | 0.00 | 0.00 | 0.00 | ||
| 20260505121447 | 37 | 337 | 0.0 | 0.0 | 0.00 | 0.00 | 0.00 | ||
| 20260505120933 | 36 | 247 | 0.0 | 0.0 | 0.00 | 0.00 | 0.00 | ||
| 20260505120421 | 36 | 337 | 0.0 | 0.0 | 0.00 | 0.00 | 0.00 | ||
| 20260505115908 | 36 | 337 | 0.0 | 0.0 | 0.00 | 0.00 | 0.00 | ||
| 20260505115356 | 37 | 50 | 0.0 | 0.0 | 0.00 | 0.00 | 0.00 | ||
| 20260505114843 | 37 | 40 | 0.0 | 0.0 | 0.00 | 0.00 | 0.00 | ||
| 20260505113817 | 37 | 348 | 0.0 | 0.0 | 0.00 | 0.00 | 0.00 | ||
| 20260505113305 | 37 | 300 | 0.0 | 0.0 | 0.00 | 0.00 | 0.00 | ||
| 20260505112751 | 37 | 337 | 0.0 | 0.0 | 0.00 | 0.00 | 0.00 | ||
| 20260505112238 | 37 | 307 | 0.0 | 0.0 | 0.00 | 0.00 | 0.00 | ||
| 20260505111726 | 37 | 320 | 0.0 | 0.0 | 0.00 | 0.00 | 0.00 | ||
| 20260505111212 | 38 | 337 | 0.0 | 0.0 | 0.00 | 0.00 | 0.00 | ||
| 20260505110146 | 38 | 116 | 0.0 | 0.0 | 0.00 | 0.00 | 0.00 | ||
| 20260505102004 | 38 | 33 | 0.0 | 0.0 | 0.00 | 0.00 | 0.00 | ||
| 20260505101451 | 39 | 84 | 0.0 | 0.0 | 0.00 | 0.00 | 0.00 | ||
| 20260505100938 | 39 | 241 | 0.0 | 0.0 | 0.00 | 0.00 | 0.00 | ||
| 20260505100425 | 39 | 326 | 0.0 | 0.0 | 0.00 | 0.00 | 0.00 | ||
| 20260505095912 | 39 | 202 | 0.0 | 0.0 | 0.00 | 0.00 | 0.00 | ||
| 20260505095400 | 39 | 348 | 0.0 | 0.0 | 0.00 | 0.00 | 0.00 | ||
| 20260505094847 | 39 | 0 | 0.0 | 0.0 | 0.00 | 0.00 | 0.00 | ||
| 20260505094334 | 39 | 337 | 0.0 | 0.0 | 0.00 | 0.00 | 0.00 | ||
| 20260505093821 | 39 | 292 | 0.0 | 0.0 | 0.00 | 0.00 | 0.00 | ||
| 20260505093308 | 39 | 258 | 0.0 | 0.0 | 0.00 | 0.00 | 0.00 | ||
| 20260505092755 | 40 | 225 | 0.0 | 0.0 | 0.00 | 0.00 | 0.00 | ||
| 20260505092242 | 40 | 292 | 0.0 | 0.0 | 0.00 | 0.00 | 0.00 | ||
| 20260505091729 | 40 | 0 | 0.0 | 0.0 | 0.00 | 0.00 | 0.00 | ||
| 20260505091216 | 40 | 337 | 0.0 | 0.0 | 0.00 | 0.00 | 0.00 | ||
| 20260505090704 | 40 | 61 | 0.0 | 0.0 | 0.00 | 0.00 | 0.00 | ||
| 20260505090151 | 40 | 315 | 0.0 | 0.0 | 0.00 | 0.00 | 0.00 | ||
| 20260505085125 | 41 | 45 | 0.0 | 0.0 | 0.00 | 0.00 | 0.00 | ||
| 20260505084613 | 41 | 322 | 0.0 | 0.0 | 0.00 | 0.00 | 0.00 | ||
| 20260505084100 | 41 | 337 | 0.0 | 0.0 | 0.00 | 0.00 | 0.00 | ||
| 20260505083547 | 41 | 157 | 0.0 | 0.0 | 0.00 | 0.00 | 0.00 | ||
| 20260505083034 | 42 | 337 | 0.0 | 0.0 | 0.00 | 0.00 | 0.00 | ||
| 20260505082521 | 42 | 337 | 0.0 | 0.0 | 0.00 | 0.00 | 0.00 | ||
| 20260505082008 | 42 | 136 | 0.0 | 0.0 | 0.00 | 0.00 | 0.00 | ||
| 20260505081455 | 42 | 337 | 0.0 | 0.0 | 0.00 | 0.00 | 0.00 | ||
| 20260505080942 | 42 | 337 | 0.0 | 0.0 | 0.00 | 0.00 | 0.00 | ||
| 20260505080429 | 43 | 326 | 0.0 | 0.0 | 0.00 | 0.00 | 0.00 | ||
| 20260505075917 | 43 | 61 | 0.0 | 0.0 | 0.00 | 0.00 | 0.00 | ||
| 20260505075404 | 43 | 337 | 0.0 | 0.0 | 0.00 | 0.00 | 0.00 | ||
| 20260505074851 | 43 | 337 | 0.0 | 0.0 | 0.00 | 0.00 | 0.00 | ||
| 20260505074338 | 43 | 337 | 0.0 | 0.0 | 0.00 | 0.00 | 0.00 | ||
| 20260505073825 | 43 | 116 | 0.0 | 0.0 | 0.00 | 0.00 | 0.00 | ||
| 20260505073312 | 43 | 90 | 0.0 | 0.0 | 0.00 | 0.00 | 0.00 | ||
| 20260505072800 | 43 | 213 | 0.0 | 0.0 | 0.00 | 0.00 | 0.00 | ||
| 20260505072247 | 43 | 139 | 0.0 | 0.0 | 0.00 | 0.00 | 0.00 | ||
| 20260505071221 | 43 | 153 | 0.0 | 0.0 | 0.00 | 0.00 | 0.00 | ||
| 20260505070708 | 43 | 337 | 0.0 | 0.0 | 0.00 | 0.00 | 0.00 | ||
| 20260505070155 | 44 | 337 | 0.0 | 0.0 | 0.00 | 0.00 | 0.00 | ||
| 20260505065643 | 44 | 121 | 0.0 | 0.0 | 0.00 | 0.00 | 0.00 | ||
| 20260505065131 | 44 | 292 | 0.0 | 0.0 | 0.00 | 0.00 | 0.00 | ||
| 20260505064617 | 44 | 225 | 0.0 | 0.0 | 0.00 | 0.00 | 0.00 | ||
| 20260505064104 | 44 | 320 | 0.0 | 0.0 | 0.00 | 0.00 | 0.00 | ||
| 20260505063551 | 44 | 133 | 0.0 | 0.0 | 0.00 | 0.00 | 0.00 | ||
| 20260505063038 | 44 | 60 | 0.0 | 0.0 | 0.00 | 0.00 | 0.00 | ||
| 20260505062526 | 44 | 100 | 0.0 | 0.0 | 0.00 | 0.00 | 0.00 | ||
| 20260505062013 | 44 | 99 | 0.0 | 0.0 | 0.00 | 0.00 | 0.00 | ||
| 20260505061500 | 44 | 337 | 0.0 | 0.0 | 0.00 | 0.00 | 0.00 | ||
| 20260505060947 | 44 | 123 | 0.0 | 0.0 | 0.00 | 0.00 | 0.00 | ||
| 20260505060434 | 44 | 337 | 0.0 | 0.0 | 0.00 | 0.00 | 0.00 | ||
| 20260505055921 | 44 | 337 | 0.0 | 0.0 | 0.00 | 0.00 | 0.00 | ||
| 20260505055408 | 44 | 165 | 0.0 | 0.0 | 0.00 | 0.00 | 0.00 | ||
| 20260505054855 | 44 | 159 | 0.0 | 0.0 | 0.00 | 0.00 | 0.00 | ||
| 20260505054343 | 44 | 247 | 0.0 | 0.0 | 0.00 | 0.00 | 0.00 | ||
| 20260505053830 | 44 | 67 | 0.0 | 0.0 | 0.00 | 0.00 | 0.00 | ||
| 20260505053317 | 44 | 33 | 0.0 | 0.0 | 0.00 | 0.00 | 0.00 | ||
| 20260505052804 | 44 | 122 | 0.0 | 0.0 | 0.00 | 0.00 | 0.00 | ||
| 20260505052251 | 45 | 155 | 0.0 | 0.0 | 0.00 | 0.00 | 0.00 | ||
| 20260505051739 | 44 | 337 | 0.0 | 0.0 | 0.00 | 0.00 | 0.00 | ||
| 20260505051226 | 45 | 202 | 0.0 | 0.0 | 0.00 | 0.00 | 0.00 | ||
| 20260505050713 | 45 | 337 | 0.0 | 0.0 | 0.00 | 0.00 | 0.00 | ||
| 20260505050200 | 45 | 337 | 0.0 | 0.0 | 0.00 | 0.00 | 0.00 | ||
| 20260505040951 | 45 | 99 | 0.0 | 0.0 | 0.00 | 0.00 | 0.00 | ||
| 20260505040438 | 45 | 90 | 0.0 | 0.0 | 0.00 | 0.00 | 0.00 | ||
| 20260505035926 | 45 | 120 | 0.0 | 0.0 | 0.00 | 0.00 | 0.00 | ||
| 20260505035413 | 45 | 90 | 0.0 | 0.0 | 0.00 | 0.00 | 0.00 | ||
| 20260505034900 | 45 | 61 | 0.0 | 0.0 | 0.00 | 0.00 | 0.00 | ||
| 20260505034347 | 45 | 337 | 0.0 | 0.0 | 0.00 | 0.00 | 0.00 | ||
| 20260505033834 | 45 | 337 | 0.0 | 0.0 | 0.00 | 0.00 | 0.00 | ||
| 20260505032809 | 45 | 140 | 0.0 | 0.0 | 0.00 | 0.00 | 0.00 | ||
| 20260505031743 | 45 | 337 | 0.0 | 0.0 | 0.00 | 0.00 | 0.00 | ||
| 20260505031230 | 45 | 187 | 0.0 | 0.0 | 0.00 | 0.00 | 0.00 | ||
| 20260505030717 | 45 | 45 | 0.0 | 0.0 | 0.00 | 0.00 | 0.00 | ||
| 20260505030204 | 45 | 48 | 0.0 | 0.0 | 0.00 | 0.00 | 0.00 | ||
| 20260505025652 | 45 | 331 | 0.0 | 0.0 | 0.00 | 0.00 | 0.00 | ||
| 20260505025139 | 45 | 315 | 0.0 | 0.0 | 0.00 | 0.00 | 0.00 | ||
| 20260505024626 | 46 | 45 | 0.0 | 0.0 | 0.00 | 0.00 | 0.00 | ||
| 20260505024113 | 46 | 211 | 0.0 | 0.0 | 0.00 | 0.00 | 0.00 | ||
| 20260505023600 | 47 | 337 | 0.0 | 0.0 | 0.00 | 0.00 | 0.00 | ||
| 20260505023047 | 48 | 144 | 0.0 | 0.0 | 0.00 | 0.00 | 0.00 | ||
| 20260505022535 | 48 | 332 | 0.0 | 0.0 | 0.00 | 0.00 | 0.00 | ||
| 20260505022022 | 49 | 325 | 0.0 | 0.0 | 0.00 | 0.00 | 0.00 | ||
| 20260505021509 | 49 | 320 | 0.0 | 0.0 | 0.00 | 0.00 | 0.00 | ||
| 20260505020956 | 50 | 325 | 0.0 | 0.0 | 0.00 | 0.00 | 0.00 | ||
| 20260505020443 | 50 | 18 | 0.0 | 0.0 | 0.00 | 0.00 | 0.00 | ||
| 20260505015930 | 50 | 315 | 0.0 | 0.0 | 0.00 | 0.00 | 0.00 | ||
| 20260505015417 | 50 | 142 | 0.0 | 0.0 | 0.00 | 0.00 | 0.00 | ||
| 20260505014904 | 50 | 40 | 0.0 | 0.0 | 0.00 | 0.00 | 0.00 |